Regional Weather Roundup
Issued by NWS

Home | Current Version | Previous Version | Graphics & Text | Print | Product List | Glossary On
Versions: 1 2 3 4 5 6 7 8 9 10 11 12 13 14 15 16 17 18 19 20 21 22 23 24 25 26 27 28 29 30 31 32 33 34 35 36 37 38 39 40 41 42 43 44 45 46 47 48 49 50
000
ASUS43 KLMK 012210
RWRKY
KENTUCKY REGIONAL WEATHER ROUNDUP
NATIONAL WEATHER SERVICE LOUISVILLE KY
600 PM EDT WED APR 01 2015

NOTE "FAIR" INDICATES FEW OR NO CLOUDS BELOW 12,000 FEET
WITH NO SIGNIFICANT WEATHER AND/OR OBSTRUCTIONS TO VISIBILITY.

KYZ001>023-026-027-061>063-070>075-012300-
WESTERN AND SOUTH CENTRAL KENTUCKY

CITY           SKY/WX    TMP DP  RH WIND       PRES   REMARKS
PADUCAH        MOSUNNY   75  36  24 SE10      29.96F
HENDERSON      MOSUNNY   72  36  26 SE13      29.99F
OWENSBORO      MOSUNNY   73  36  26 SE12      30.02S
HOPKINSVILLE   SUNNY     73  38  27 E12       30.00F
BOWLING GREEN  MOSUNNY   71  32  23 SE6       30.05S
GLASGOW        SUNNY     70  31  23 E10       30.04F
$$

KYZ024-025-028>034-038-045-046-053-012300-
NORTH CENTRAL KENTUCKY

CITY           SKY/WX    TMP DP  RH WIND       PRES   REMARKS
LOUISVILLE/SDF PTSUNNY   70  32  24 SE10      30.07S
LOUISVILLE/LOU MOSUNNY   68  31  25 SE9       30.06F
FORT KNOX      MOSUNNY   68  30  23 E9        30.04F HAZE
$$

KYZ035>037-039>044-047>052-055>060-089>105-012300-
NORTHEAST KENTUCKY

CITY           SKY/WX    TMP DP  RH WIND       PRES   REMARKS
LEXINGTON      MOSUNNY   65  25  22 SE3       30.10R
COVINGTON      MOSUNNY   66  31  27 SE8       30.07F
FRANKFORT      MOSUNNY   64  28  25 E6        30.08S
$$

KYZ054-064>069-076>088-106>120-012300-
SOUTHEAST KENTUCKY

CITY           SKY/WX    TMP DP  RH WIND       PRES   REMARKS
JACKSON        SUNNY     66  18  15 VRB5      30.10S
LONDON         SUNNY     70  15  12 NE7       30.08F
SOMERSET       MOSUNNY   68  23  18 E3        30.08F
MIDDLESBORO    SUNNY     71  20  14 CALM      30.07F
MONTICELLO     CLEAR     71  26  18 NE6       30.08F
$$




USA.gov is the U.S. government's official web portal to all federal, state and local government web resources and services.